Location: Chiroubles
(46.1812°N, 4.6660°E)
Time: 18:35:19
(UTC+00:00)

ATLAS 3B R/B - Pass Details

Date: 15 August 2020
Orbit: 1016 x 1179 km, 63.8° (Epoch: 22 September)

Event Time Altitude Azimuth Distance (km) Brightness Sun altitude
Rises 22:12:49 0° 233° (SW) 3,748 5.5 -26.6°
Reaches altitude 10° 22:15:28 10° 238° (WSW) 2,797 4.8 -26.8°
Maximum altitude 22:21:53 55° 316° (NW) 1,217 3.2 -27.2°
Drops below altitude 10° 22:28:26 10° 33° (NNE) 2,845 5.3 -27.7°
Sets 22:31:10 0° 38° (NE) 3,819 6.0 -27.8°
